Regional Weather Roundup
Issued by NWS

Home | Current Version | Previous Version | Graphics & Text | Print | Product List | Glossary Off
Versions: 1 2 3 4 5 6 7 8 9 10 11 12 13 14 15 16 17 18 19 20 21 22 23 24 25 26 27 28 29 30 31 32 33 34 35 36 37 38 39 40 41 42 43 44 45 46 47 48 49 50

194
ASUS43 KMKX 101459
RWRWI

WISCONSIN REGIONAL WEATHER ROUNDUP
NATIONAL WEATHER SERVICE MILWAUKEE/SULLIVAN WI
900 AM CST WED FEB 10 2016

NOTE: "FAIR" INDICATES FEW OR NO CLOUDS BELOW 12,000 FEET WITH NO
SIGNIFICANT WEATHER AND/OR OBSTRUCTIONS TO VISIBILITY.

WIZ001-002-006>008-014>016-023>028-101600-
NORTHWEST WISCONSIN

CITY           SKY/WX    TMP DP  RH WIND       PRES   REMARKS
SUPERIOR ARPT  CLOUDY    -8 -13  78 NW3       30.15S
ASHLAND        CLOUDY     3  -4  72 N9        30.11R WCI -12
HAYWARD        CLOUDY     2  -4  76 VRB3      30.05S
SIREN          CLOUDY    -6 -11  79 NW6       30.12R WCI -19
CUMBERLAND     CLOUDY    -8 -13  77 NW7       30.06R WCI -22
RICE LAKE      CLOUDY    -3  -8  78 CALM      30.08S
CHETEK         CLOUDY    -2  -7  80 CALM      30.07S
LADYSMITH      CLOUDY     4  -3  73 NW7       30.05S WCI  -8
EAU CLAIRE     NOT AVBL
MENOMONIE      PTSUNNY    2  -5  73 W7        30.12R WCI -11
NEW RICHMOND   CLOUDY    -2  -8  77 N6        30.11R WCI -14
OSCEOLA        MOSUNNY   -1  -6  77 NW6       30.16R WCI -12
$$

WIZ003>005-009-010-017-018-101600-
NORTH CENTRAL WISCONSIN

CITY           SKY/WX    TMP DP  RH WIND       PRES   REMARKS
MANITOWISH WTR CLOUDY     2  -3  78 N6        29.97R WCI  -9
ARBOR VITAE    CLOUDY     4  -2  73 N9        29.96R WCI -10
WOODRUFF       CLOUDY     4  -2  73 N9        29.96R WCI -10
RHINELANDER    CLOUDY     4  -6  63 N7        29.96R WCI  -8
EAGLE RIVER    CLOUDY     3  -6  65 N9        29.95R WCI -12
LAND O LAKES   LGT SNOW   3  -3  76 N8        29.95R WCI -10
PHILLIPS       CLOUDY     1  -4  76 NW8       29.98S WCI -12
TOMAHAWK       CLOUDY     3  -3  76 NW6       29.98S WCI  -8
MEDFORD        CLOUDY    -1  -6  80 NW8       29.98S WCI -16
MERRILL        CLOUDY     4  -3  74 N5        30.00R WCI  -5
$$

WIZ029-030-035-036-043>047-101600-
CENTRAL WISCONSIN

CITY           SKY/WX    TMP DP  RH WIND       PRES   REMARKS
WAUSAU         CLOUDY     7  -2  66 N7        29.98S WCI  -5
MOSINEE        NOT AVBL
MARSHFIELD     SUNNY      1  -7  68 NW12      30.00R WCI -16
STEVENS POINT  CLOUDY     5  -2  72 NW6       30.01S HAZE    WCI  -6
WAUPACA        CLOUDY    11  -3  52 NW10      30.02R WCI  -2
WAUTOMA        NOT AVBL
WISC RAPIDS    CLOUDY     5  -5  63 N7        30.04R WCI  -7
CAMP DOUGLAS   NOT AVBL
$$

WIZ011>013-019>022-031-037>040-048>050-101600-
NORTHEAST WISCONSIN

CITY           SKY/WX    TMP DP  RH WIND       PRES   REMARKS
ANTIGO         CLOUDY     3  -5  67 N17G23    29.95S WCI -16
SHAWANO        CLOUDY    10  -5  50 NW10G17   30.02R WCI  -3
OCONTO         SUNNY      7  -6  55 N9G17     30.01R WCI  -6
STURGEON BAY   SUNNY      7  -6  56 NW16G24   29.99R WCI -11
GREEN BAY      SUNNY      9  -4  55 NW13      30.01R WCI  -7
MANITOWOC      NOT AVBL
APPLETON       PTSUNNY    9  -6  52 NW13G20   29.99R WCI  -7
CLINTONVILLE   CLOUDY    10  -6  48 NW9       30.02R WCI  -2
OSHKOSH        MOSUNNY    9  -4  55 NW16      30.01R WCI  -8
$$

WIZ032>034-041-042-053>061-101600-
SOUTHWEST WISCONSIN

CITY           SKY/WX    TMP DP  RH WIND       PRES   REMARKS
LA CROSSE      CLOUDY     3  -6  66 NW6       30.12R WCI  -8
SPARTA         MOSUNNY   -6 -12  75 CALM      30.08F
VIROQUA        CLOUDY    -1  -8  72 NW7       30.03R WCI -14
BOSCOBEL       CLOUDY     6  -1  73 CALM      30.11S
PRAIRIE DU CHI MOSUNNY    5  -5  61 NW5       30.12R WCI  -4
PLATTEVILLE    MOSUNNY    5  -4  68 NW10      30.06S WCI -10
$$

WIZ056-057-062-063-064-067-068-101600-
SOUTH CENTRAL WISCONSIN

CITY           SKY/WX    TMP DP  RH WIND       PRES   REMARKS
REEDSBURG      SUNNY      2  -6  71 NW7       30.05S WCI -11
BARABOO/DELLS  SUNNY      3  -5  69 NW6       30.04S WCI  -8
LONE ROCK      NOT AVBL
MINERAL POINT  SUNNY      5  -4  66 NW6       30.03S WCI  -6
MADISON        MOSUNNY    6  -4  63 NW8       30.04S WCI  -7
MIDDLETON      SUNNY      6  -3  67 NW7       30.05S WCI  -5
WATERTOWN      CLOUDY     8   0  70 NW9G16    30.02R WCI  -5
MONROE         SUNNY      9   0  66 NW12G17   30.03S WCI  -6
JANESVILLE     SUNNY     10   0  61 NW12      30.04  WCI  -4
$$

WIZ051-052-058>065-066-070>072-101600-
SOUTHEAST WISCONSIN

CITY           SKY/WX    TMP DP  RH WIND       PRES   REMARKS
MILWAUKEE      MOSUNNY   12  -1  56 NW13      30.01R WCI  -3
WAUKESHA       PTSUNNY    9  -2  61 NW12G23   30.00R WCI  -6
MILWAUKEE/TIMM SUNNY     10  -2  56 NW13G20   30.01R WCI  -5
RACINE         SUNNY     11  -2  56 N14G22    30.02R WCI  -5
BURLINGTON     CLOUDY    10   0  64 W10       30.01R WCI  -4
KENOSHA        PTSUNNY   11   0  61 NW13      30.01R WCI  -4
FOND DU LAC    MOSUNNY   10  -4  53 NW14      30.01S WCI  -6
SHEBOYGAN      SUNNY      9  -4  55 NW12      29.99R WCI  -6
WEST BEND      PTSUNNY   10  -4  52 NW12G20   29.99R WCI  -4
JUNEAU         MOSUNNY    8  -1  66 NW9       30.02R WCI  -5
$$

LSZ147-162-101600-
LAKE SUPERIOR

STATION/POSITION TIME  TEMP    WIND        PRES    WAVE
                       AIR SEA DIR/SP/G            HT/PER
                 (UTC) (F)     (DEG/KT/KT) (MB)    (FT/S)
DEVILS ISLAND    1400    4     350/ 12/ 15 1021.7S
PORT WING        1340    5      10/ 10/ 14 1020.0S
SAXON HARBOR     1440    8                 1018.6S
$$

LMZ867-665-643>646-101600-
LAKE MICHIGAN

STATION/POSITION TIME  TEMP    WIND        PRES    WAVE
                       AIR SEA DIR/SP/G            HT/PER
                 (UTC) (F)     (DEG/KT/KT) (MB)    (FT/S)
CHAMBERS ISLAND  1400    8     300/ 17/ 23 1014.6R
ALGOMA LAKESHORE 1411          330/ 13/ 18   N/A
KEWAUNEE LAKESHO 1400    7     320/ 12/ 18 1014.3R
SHEBOYGAN LAKESH 1400    9     320/ 15/ 18 1017.1R
PORT WASHINGTON  1440   11     320/  7/ 20 1017.3R
MILWAUKEE LAKESH 1410   11     330/  9/ 14   N/A
KENOSHA   LAKESH 1400   10     300/ 10/ 14 1015.9R
$$

TC  - TEMPERATURE IN CELSIUS
VSB - VISIBILITY IN STATUTE MILES
WCI - WIND CHILL INDEX
HX  - HEAT INDEX





USA.gov is the U.S. government's official web portal to all federal, state and local government web resources and services.